Weather History for KJYM - December, 2013

Change the Weather History Date:

Wednesday, December 25, 2013

  Actual Average Record
Temperature  
Mean Temperature 22 °F -  
Max Temperature 24 °F 29 °F 56 °F (1982)
Min Temperature 19 °F 14 °F -19 °F (1983)
Degree Days  
Heating Degree Days 44    
Moisture  
Dew Point 19 °F    
Average Humidity 86    
Maximum Humidity 100    
Minimum Humidity 74    
Precipitation  
Precipitation 0.00 in - - ()
Sea Level Pressure  
Sea Level Pressure 30.17 in    
Wind  
Wind Speed 10 mph (SSW)    
Max Wind Speed 15 mph    
Max Gust Speed 20 mph    
Visibility 7 miles    
Events      
Averages and records for this station are not official NWS values.
T = Trace of Precipitation, MM = Missing Value Source: NWS Daily Summary

Daily Weather History Graph

Daily Weather History Graph

Search for Another Location

Airport or City:

Trip Planner

Search our weather history database for the weather conditions in past years. The results will help you decide how hot, cold, wet, or windy it might be!

Date:

Astronomy

Dec. 25, 2013 Rise Set
Actual Time 8:04 AM EST 5:12 PM EST
Civil Twilight 7:32 AM EST 5:44 PM EST
Nautical Twilight 6:57 AM EST 6:19 PM EST
Astronomical Twilight 6:23 AM EST 6:53 PM EST
Moon 12:26 AM EST (12/25) 12:20 PM EST (12/25)
Length of Visible Light 10h 11m
Length of Day
9h 08m
Waning Gibbous, 49% of the Moon is Illuminated
Dec 25
Waning Gibbous
Jan 1
New
Jan 7
First Quarter
Jan 15
Full
Jan 24
Last Quarter

Hourly Weather History & Observations

Time (EST) Temp. Windchill Dew Point Humidity Pressure Visibility Wind Dir Wind Speed Gust Speed Precip Events Conditions
7:15 AM 19.4 °F 6.6 °F 12.2 °F 74% 30.28 in 10.0 mi South 12.7 mph 18.4 mph N/A   Overcast
7:35 AM 19.4 °F 7.2 °F 12.2 °F 74% 30.25 in 10.0 mi SSE 11.5 mph 19.6 mph N/A   Overcast
7:55 AM 19.4 °F 8.6 °F 12.2 °F 74% 30.28 in 10.0 mi South 9.2 mph - N/A   Overcast
8:15 AM 19.4 °F 7.2 °F 12.2 °F 74% 30.28 in 10.0 mi South 11.5 mph 17.3 mph N/A   Overcast
8:35 AM 19.4 °F 8.6 °F 12.2 °F 74% 30.27 in 10.0 mi South 9.2 mph 17.3 mph N/A   Overcast
8:55 AM 19.4 °F 7.9 °F 12.2 °F 74% 30.27 in 7.0 mi South 10.4 mph 16.1 mph N/A   Overcast
9:15 AM 19.4 °F 5.5 °F 14.0 °F 80% 30.27 in 3.0 mi South 15.0 mph 19.6 mph N/A   Overcast
9:35 AM 19.4 °F 6.6 °F 15.8 °F 86% 30.27 in 2.5 mi South 12.7 mph - N/A   Overcast
9:55 AM 19.4 °F 8.6 °F 15.8 °F 86% 30.26 in 1.0 mi South 9.2 mph - N/A   Overcast
10:15 AM 19.4 °F 7.9 °F 15.8 °F 86% 30.25 in 2.5 mi South 10.4 mph - N/A   Overcast
10:35 AM 19.4 °F 7.9 °F 17.6 °F 93% 30.26 in 2.5 mi South 10.4 mph - N/A   Overcast
10:55 AM 19.4 °F 7.2 °F 17.6 °F 93% 30.26 in 2.5 mi South 11.5 mph - N/A   Overcast
11:15 AM 21.2 °F 9.5 °F 17.6 °F 86% 30.25 in 4.0 mi South 11.5 mph - N/A   Overcast
11:35 AM 21.2 °F 9.5 °F 17.6 °F 86% 30.23 in 10.0 mi South 11.5 mph 16.1 mph N/A   Overcast
11:55 AM 21.2 °F 10.9 °F 17.6 °F 86% 30.22 in 10.0 mi SSW 9.2 mph 17.3 mph N/A   Overcast
12:15 PM 21.2 °F 9.5 °F 17.6 °F 86% 30.21 in 10.0 mi SSW 11.5 mph 17.3 mph N/A   Overcast
12:35 PM 21.2 °F 12.6 °F 17.6 °F 86% 30.19 in 10.0 mi SSW 6.9 mph 17.3 mph N/A   Overcast
12:55 PM 21.2 °F 10.1 °F 17.6 °F 86% 30.18 in 10.0 mi South 10.4 mph - N/A   Overcast
1:15 PM 21.2 °F 10.1 °F 17.6 °F 86% 30.18 in 7.0 mi SSW 10.4 mph - N/A   Overcast
1:35 PM 21.2 °F 10.9 °F 17.6 °F 86% 30.17 in 5.0 mi SSW 9.2 mph - N/A   Overcast
1:55 PM 23.0 °F 14.7 °F 17.6 °F 80% 30.17 in 5.0 mi SSW 6.9 mph - N/A   Overcast
2:15 PM 23.0 °F 13.1 °F 19.4 °F 86% 30.16 in 7.0 mi SW 9.2 mph - N/A   Overcast
2:35 PM 23.0 °F 11.7 °F 17.6 °F 80% 30.15 in 7.0 mi SSW 11.5 mph - N/A   Overcast
2:55 PM 23.0 °F 13.9 °F 19.4 °F 86% 30.15 in 10.0 mi SW 8.1 mph 16.1 mph N/A   Overcast
3:15 PM 23.0 °F 13.9 °F 19.4 °F 86% 30.15 in 10.0 mi SW 8.1 mph - N/A   Overcast
3:35 PM 23.0 °F 13.9 °F 19.4 °F 86% 30.15 in 10.0 mi SW 8.1 mph - N/A   Overcast
3:55 PM 23.0 °F 13.1 °F 19.4 °F 86% 30.15 in 10.0 mi SW 9.2 mph - N/A   Overcast
4:15 PM 23.0 °F 13.9 °F 19.4 °F 86% 30.15 in 10.0 mi SW 8.1 mph - N/A   Overcast
4:35 PM 23.0 °F 14.7 °F 19.4 °F 86% 30.15 in 10.0 mi SSW 6.9 mph - N/A   Overcast
4:55 PM 23.0 °F 15.8 °F 19.4 °F 86% 30.15 in 10.0 mi SW 5.8 mph - N/A   Overcast
5:15 PM 23.0 °F 17.0 °F 19.4 °F 86% 30.15 in 10.0 mi SSW 4.6 mph - N/A   Overcast
5:35 PM 23.0 °F 15.8 °F 19.4 °F 86% 30.15 in 10.0 mi SSW 5.8 mph - N/A   Overcast
5:55 PM 23.0 °F 15.8 °F 19.4 °F 86% 30.15 in 10.0 mi SSW 5.8 mph - N/A   Overcast
6:15 PM 23.0 °F 13.9 °F 21.2 °F 93% 30.14 in 10.0 mi SSW 8.1 mph - N/A   Overcast
6:35 PM 23.0 °F 15.8 °F 21.2 °F 93% 30.14 in 10.0 mi SSW 5.8 mph - N/A   Overcast
6:55 PM 24.8 °F 17.9 °F 21.2 °F 86% 30.14 in 10.0 mi SSW 5.8 mph - N/A   Overcast
7:15 PM 24.8 °F 17.9 °F 21.2 °F 86% 30.13 in 7.0 mi SSW 5.8 mph - N/A   Overcast
7:35 PM 24.8 °F 16.9 °F 21.2 °F 86% 30.13 in 7.0 mi SSW 6.9 mph - N/A   Overcast
7:55 PM 24.8 °F 16.9 °F 21.2 °F 86% 30.13 in 7.0 mi SSW 6.9 mph - N/A   Overcast
8:15 PM 24.8 °F 16.9 °F 21.2 °F 86% 30.12 in 7.0 mi South 6.9 mph - N/A   Overcast
8:35 PM 24.8 °F 17.9 °F 21.2 °F 86% 30.12 in 7.0 mi South 5.8 mph - N/A   Overcast
8:55 PM 24.8 °F 16.9 °F 21.2 °F 86% 30.12 in 7.0 mi South 6.9 mph - N/A   Overcast
9:15 PM 24.8 °F 16.1 °F 23.0 °F 93% 30.11 in 7.0 mi SSW 8.1 mph - N/A   Overcast
9:35 PM 24.8 °F 16.1 °F 23.0 °F 93% 30.10 in 7.0 mi South 8.1 mph - N/A   Overcast
9:55 PM 24.8 °F 16.9 °F 23.0 °F 93% 30.10 in 7.0 mi South 6.9 mph - N/A   Overcast
10:15 PM 24.8 °F 16.9 °F 23.0 °F 93% 30.09 in 7.0 mi SSW 6.9 mph - N/A   Overcast
10:35 PM 24.8 °F 16.9 °F 23.0 °F 93% 30.09 in 4.0 mi SSW 6.9 mph - N/A   Overcast
10:55 PM 24.8 °F 15.3 °F 23.0 °F 93% 30.08 in 4.0 mi SSW 9.2 mph - N/A   Overcast
11:15 PM 24.8 °F 16.9 °F 24.8 °F 100% 30.07 in 3.0 mi SSW 6.9 mph - N/A   Overcast
11:35 PM 24.8 °F 16.9 °F 24.8 °F 100% 30.07 in 4.0 mi SSW 6.9 mph - N/A   Overcast
11:55 PM 24.8 °F 16.9 °F 24.8 °F 100% 30.06 in 4.0 mi South 6.9 mph - N/A   Overcast